Location: Callao
(39.8979°N, 113.7141°W)
Time: 08:33:55
(UTC+00:00)

CUTE 1.7 + AOD 2 - Visible Passes

Search period start: 11 May 2021 00:00
Search period end: 21 May 2021 00:00
Orbit: 592 x 612 km, 97.6° (Epoch: 10 May)

Date Brightness Start Highest point End Pass type
(mag) Time Alt. Az. Time Alt. Az. Time Alt. Az.
11 May ? 10:57:54 10° ENE 11:00:12 14° E 11:02:31 10° SE visible
12 May ? 11:08:56 10° NE 11:12:00 20° E 11:15:03 10° SE visible
13 May ? 11:20:14 10° NE 11:23:46 26° E 11:27:18 10° SSE visible
14 May ? 11:31:40 10° NNE 11:35:32 35° E 11:39:23 10° SSE visible
15 May ? 11:43:11 10° NNE 11:47:15 49° E 11:51:19 10° S visible
18 May ? 10:46:05 10° E 10:46:11 10° E 10:46:17 10° E visible
19 May ? 10:55:46 10° ENE 10:58:00 14° E 11:00:13 10° SE visible
20 May ? 11:06:47 10° NE 11:09:47 19° E 11:12:47 10° SE visible
